Starlink 3763

decayed
NORAD ID: 52556 Int'l Des: 2022-051 Owner: SPXS Country: US Constellation: starlink
LEOCIRCULAR
グループ

Starlink 3763について

説明を読み込み中...

高度履歴

Altitude vs Time

uPlot chart will show altitude changes over time

軌道要素

1 52556U 22051Z 26031.84147898 .07956691 12074-4 19732-2 0 9999
2 52556 53.1616 164.7684 0007733 294.9702 65.0537 16.28319472207701
Epoch: Jan 31, 2026 • Age: 756 hours

現在のステータス

Position data unavailable
打ち上げ日 May 13, 2022
運用期間 3.8 years
落下予定日 Feb 1, 2026
タイプ internet

技術仕様

分類 Payload
質量 297.00 kg
乾燥質量 275.00 kg
総質量 297.00 kg
長さ 0.20 m
直径 2.80 m
スパン 9.00 m
形状 Box + pan
製造者 SPXS
バスタイプ Starlink
フェーズステータス Unknown Transfer Status
所有者/国 SPXS/US

大規模コンステレーション

Loading constellations...